This is the latest recevied weather packets stored in our database for station/object KD0ISH. If no packets are shown the sender has not sent any weather packets the latest 10 day(s).
| Time | Temp. | Humidity | Pressure | Rain* | Wind** | Luminosity | Snow |
|---|---|---|---|---|---|---|---|
| 1776971052 | 22.78° C | 77% | 1008.3 hPa | 0 mm | - | 98 W/m² | - |
| 1776970749 | 22.78° C | 77% | 1008.4 hPa | 0 mm | - | 89 W/m² | - |
| 1776970447 | 22.78° C | 76% | 1008.7 hPa | 0 mm | - | 85 W/m² | - |
| 1776970143 | 22.78° C | 76% | 1008.2 hPa | 0 mm | - | 83 W/m² | - |
| 1776969840 | 22.78° C | 76% | 1008.5 hPa | 0 mm | - | 89 W/m² | - |
| 1776969536 | 23.33° C | 76% | 1008.4 hPa | 0 mm | - | 112 W/m² | - |
| 1776969232 | 23.33° C | 76% | 1008.6 hPa | 0 mm | - | 179 W/m² | - |
| 1776968929 | 23.33° C | 76% | 1008.5 hPa | 0 mm | - | 222 W/m² | - |
| 1776968628 | 22.78° C | 76% | 1008.9 hPa | 0 mm | - | 206 W/m² | - |
| 1776968324 | 22.78° C | 76% | 1008.9 hPa | 0 mm | - | 181 W/m² | - |
| 1776968021 | 22.78° C | 76% | 1008.8 hPa | 0 mm | - | 133 W/m² | - |
| 1776967718 | 22.78° C | 76% | 1009 hPa | 0 mm | - | 131 W/m² | - |
| 1776967413 | 22.78° C | 76% | 1009 hPa | 0 mm | - | 97 W/m² | - |
| 1776967112 | 23.33° C | 75% | 1009 hPa | 0 mm | - | 117 W/m² | - |
| 1776966808 | 23.33° C | 75% | 1009.1 hPa | 0 mm | - | 107 W/m² | - |
| 1776966504 | 23.33° C | 75% | 1009 hPa | 0 mm | - | 122 W/m² | - |
| 1776966201 | 23.33° C | 75% | 1009.3 hPa | 0 mm | - | 117 W/m² | - |
| 1776965901 | 23.33° C | 75% | 1009.3 hPa | 0 mm | - | 116 W/m² | - |
| 1776965599 | 23.33° C | 75% | 1009.1 hPa | 0 mm | - | 88 W/m² | - |
| 1776965296 | 23.89° C | 74% | 1009.3 hPa | 0 mm | - | 99 W/m² | - |
| 1776964994 | 23.89° C | 75% | 1009.3 hPa | 0 mm | - | 194 W/m² | - |
| 1776964688 | 23.89° C | 75% | 1009.1 hPa | 0 mm | - | 163 W/m² | - |
| 1776964388 | 23.89° C | 74% | 1009.3 hPa | 0 mm | - | 207 W/m² | - |
| 1776964086 | 23.33° C | 75% | 1009.5 hPa | 0 mm | - | 225 W/m² | - |
| 1776963782 | 23.89° C | 75% | 1009.4 hPa | 0 mm | - | 181 W/m² | - |
* Rain latest hour (hover to see other rain measurements)
** Current wind speed in m/s (hover to see current wind gust speed)